Location: Bothwell
(42.3833°S, 147.0000°E)
Time: 10:52:29
(UTC+10:00)

Tiangong - Visible Passes

Search period start: 28 June 2022 00:00
Search period end: 08 July 2022 00:00
Orbit: 384 x 388 km, 41.5° (Epoch: 27 June)

Date Brightness Start Highest point End Pass type
(mag) Time Alt. Az. Time Alt. Az. Time Alt. Az.
28 Jun 4.4 06:39:21 10° NNE 06:40:28 11° NNE 06:41:36 10° NE visible
30 Jun 3.8 06:16:12 10° NNW 06:18:35 19° NNE 06:20:58 10° ENE visible
01 Jul 4.1 05:18:55 11° NNE 05:19:32 12° NNE 05:20:49 10° ENE visible
01 Jul 2.3 06:52:47 10° NW 06:55:52 43° NNE 06:58:59 10° E visible
02 Jul 2.8 05:55:17 21° NNW 05:56:41 29° NNE 05:59:33 10° E visible
03 Jul 4.3 04:59:10 14° ENE 04:59:10 14° ENE 04:59:57 10° ENE visible
03 Jul 1.6 06:31:26 14° WNW 06:34:02 59° NNE 06:37:14 10° E visible
04 Jul 2.3 05:35:09 41° NE 05:35:09 41° NE 05:37:51 10° E visible
04 Jul 1.3 07:08:14 10° W 07:11:29 77° N 07:14:44 10° E visible
05 Jul 1.2 06:10:59 36° WNW 06:12:07 72° N 06:15:22 10° E visible
06 Jul 3.5 05:14:29 24° E 05:14:29 24° E 05:15:57 10° E visible
06 Jul 1.2 06:46:43 13° W 06:49:33 73° N 06:52:47 10° E visible
07 Jul 1.1 05:50:09 77° N 05:50:09 77° N 05:53:24 10° E visible
